Simultaneous Nadir Overpasses (SNOs) Predictions

Prediction of SNOs between LANDSAT-8 and METOP-B Satellite Orbit:

Table of predicted SNOs for the next 14.0 days since TLE Epoch: 8/2/2014
Index Date (LANDSAT-8) Time (LANDSAT-8) Lat,Lon (LANDSAT-8) SZA (LANDSAT-8 ) Date (METOP-B) Time (METOP-B) Lat,Lon (METOP-B) SZA (METOP-B ) Distance(km) Time Diff (sec)
1 08/05/2014 05:46:20 81.16, 134.01 66.22 08/05/2014 05:45:48 81.16, 133.88 66.19 2.34 32
2 08/05/2014 06:35:46 -81.19, -57.98 113.72 08/05/2014 06:36:27 -81.19, -57.93 113.70 0.80 41
3 08/08/2014 01:20:36 81.16,-159.65 66.99 08/08/2014 01:20:09 81.16,-159.72 66.97 1.13 27
4 08/08/2014 02:10:02 -81.18, 8.38 112.95 08/08/2014 02:10:48 -81.19, 8.52 112.91 2.52 46
5 08/10/2014 20:54:52 81.17, -93.03 67.84 08/10/2014 20:54:30 81.17, -92.97 67.83 0.94 22
6 08/10/2014 21:44:18 -81.19, 75.01 112.10 08/10/2014 21:45:10 -81.19, 74.93 112.09 1.62 52
7 08/13/2014 16:29:08 81.18, -26.49 68.70 08/13/2014 16:28:52 81.17, -26.65 68.68 2.91 16
8 08/13/2014 17:18:35 -81.18, 141.19 111.28 08/13/2014 17:19:32 -81.19, 141.29 111.24 1.91 57
9 08/16/2014 12:03:23 81.18, 39.96 69.59 08/16/2014 12:03:12 81.18, 40.01 69.59 0.91 11




NCC Satellite Simultaneous Nadir Overpasses (SNOs) Prediction Service
